Home > Weather > Daly City > Past weeks

Flag for USA Past Weather in Daly City, California, USA — Yesterday and Last 2 Weeks

Now
56 °F

Passing clouds.


Feels Like: 53 °F
Forecast: 54 / 67 °F
Wind: 12 mph from Northwest

Location: San Francisco International Airport

Current Time: Jul 30, 2016 at 12:33:23 AM

Latest Report: Jul 29, 2016 at 11:56 PM


Visibility: 10 mi

Pressure: 29.80 "Hg

Humidity: 90%

Dew Point: 53 °F

Location of Daly CityLocation

Past Weather in Daly City — Graph

°F

Daly City Temperature Yesterday

Maximum temperature yesterday: 68 °F (at 1:56 PM)
Minimum temperature yesterday: 54 °F (at 1:56 AM)
Average temperature yesterday: 60 °F

High & Low Weather Summary for the Past Weeks

 TemperatureHumidityPressure
High80 °F (Jul 26, 2:56 PM)90% (Jul 14, 10:56 PM)30.13 "Hg (Jul 14, 10:56 PM)
Low53 °F (Jul 26, 3:56 AM)38% (Jul 26, 2:56 PM)29.78 "Hg (Jul 29, 6:56 PM)
Average61 °F72%29.96 "Hg
* Reported Jul 14 10:56 PM — Jul 29 10:56 PM, Daly City, Weather by CustomWeather, © 2016

Note: Actual official high and low records may vary slightly from our data, if they occured in-between our weather recording intervals... More about our weather records

Advertising

Daly City Weather History for the Previous 24 Hours

Scroll right to see more
 ConditionsComfort  
Time TempWeatherWind HumidityBarometerVisibility
10:56 PM
Fri, Jul 29
56 °FPassing clouds.15 mph90%29.81 "Hg10 mi
9:56 PM57 °FPassing clouds.14 mph87%29.82 "Hg10 mi
8:56 PM57 °FPassing clouds.18 mph90%29.80 "Hg10 mi
7:56 PM59 °FPassing clouds.21 mph81%29.78 "Hg10 mi
6:56 PM61 °FPassing clouds.18 mph75%29.78 "Hg10 mi
5:56 PM63 °FPassing clouds.26 mph70%29.78 "Hg10 mi
4:56 PM65 °FPassing clouds.25 mph66%29.80 "Hg10 mi
3:56 PM68 °FPassing clouds.23 mph59%29.80 "Hg10 mi
2:56 PM68 °FPassing clouds.21 mph57%29.81 "Hg10 mi
1:56 PM68 °FPassing clouds.17 mph57%29.83 "Hg10 mi
12:56 PM67 °FPassing clouds.16 mph59%29.85 "Hg10 mi
11:56 AM66 °FPassing clouds.15 mph61%29.86 "Hg10 mi
10:56 AM66 °FPassing clouds.10 mph63%29.87 "Hg10 mi
9:56 AM62 °FPassing clouds.6 mph70%29.87 "Hg10 mi
8:56 AM59 °FPassing clouds.9 mph75%29.88 "Hg10 mi
7:56 AM56 °FPassing clouds.10 mph87%29.88 "Hg10 mi
6:56 AM54 °FPassing clouds.10 mph90%29.87 "Hg10 mi
5:56 AM54 °FPassing clouds.12 mph90%29.86 "Hg10 mi
4:56 AM54 °FPassing clouds.12 mph90%29.85 "Hg10 mi
3:56 AM54 °FPassing clouds.12 mph90%29.85 "Hg10 mi
2:56 AM54 °FPassing clouds.14 mph90%29.86 "Hg10 mi
1:56 AM54 °FPassing clouds.14 mph90%29.85 "Hg10 mi
12:56 AM55 °FPassing clouds.14 mph87%29.86 "Hg10 mi
Weather by CustomWeather, © 2016

See weather overviewHow to use our weather pages